TimeCDT,TemperatureF,Dew PointF,Humidity,Sea Level PressureIn,VisibilityMPH,Wind Direction,Wind SpeedMPH,Gust SpeedMPH,PrecipitationIn,Events,Conditions,WindDirDegrees,DateUTC
12:54 AM,66.9,54.0,63,29.56,10.0,SE,11.5,-,N/A,,Overcast,140,2013-09-26 05:54:00
1:54 AM,64.9,55.0,70,29.56,10.0,SE,5.8,-,N/A,,Mostly Cloudy,140,2013-09-26 06:54:00
2:54 AM,61.0,55.0,81,29.52,10.0,East,5.8,-,N/A,,Clear,80,2013-09-26 07:54:00
3:54 AM,61.0,55.9,83,29.50,10.0,East,5.8,-,N/A,,Mostly Cloudy,100,2013-09-26 08:54:00
4:54 AM,60.1,57.0,90,29.52,8.0,West,5.8,-,0.01,Rain,Light Rain,260,2013-09-26 09:54:00
5:54 AM,60.1,57.9,93,29.53,8.0,South,5.8,-,0.02,Rain-Thunderstorm,Light Rain,170,2013-09-26 10:54:00
6:02 AM,60.8,57.2,88,29.55,8.0,South,3.5,-,0.00,Rain-Thunderstorm,Light Rain,190,2013-09-26 11:02:00
6:12 AM,60.8,57.2,88,29.53,9.0,East,4.6,-,0.00,Rain,Light Rain,80,2013-09-26 11:12:00
6:28 AM,60.8,57.2,88,29.53,5.0,Calm,Calm,-,0.02,Rain,Light Rain,0,2013-09-26 11:28:00
6:54 AM,57.9,55.9,93,29.52,7.0,ESE,3.5,-,0.02,,Mostly Cloudy,110,2013-09-26 11:54:00
7:54 AM,59.0,57.0,93,29.53,8.0,SW,3.5,-,N/A,,Mostly Cloudy,220,2013-09-26 12:54:00
8:54 AM,60.1,57.9,93,29.54,4.0,Calm,Calm,-,N/A,,Mostly Cloudy,0,2013-09-26 13:54:00
9:32 AM,60.8,57.2,88,29.55,5.0,SSE,5.8,-,N/A,,Overcast,160,2013-09-26 14:32:00
9:54 AM,60.1,57.9,93,29.57,5.0,SW,9.2,-,N/A,,Overcast,230,2013-09-26 14:54:00
10:09 AM,59.0,55.4,88,29.57,6.0,West,11.5,-,N/A,,Overcast,270,2013-09-26 15:09:00
10:54 AM,57.9,54.0,87,29.58,7.0,West,11.5,-,N/A,,Overcast,260,2013-09-26 15:54:00
11:39 AM,57.2,53.6,88,29.59,10.0,SW,8.1,-,N/A,,Mostly Cloudy,220,2013-09-26 16:39:00
11:54 AM,60.1,54.0,80,29.59,10.0,WSW,9.2,-,N/A,,Mostly Cloudy,250,2013-09-26 16:54:00
12:54 PM,61.0,52.0,72,29.60,10.0,WSW,13.8,-,N/A,,Mostly Cloudy,250,2013-09-26 17:54:00
1:54 PM,60.1,50.0,69,29.64,10.0,WSW,18.4,-,N/A,,Mostly Cloudy,240,2013-09-26 18:54:00
2:54 PM,57.9,46.9,67,29.67,10.0,SW,23.0,29.9,N/A,,Overcast,230,2013-09-26 19:54:00
3:21 PM,60.8,46.4,59,29.67,10.0,SW,24.2,33.4,N/A,,Scattered Clouds,230,2013-09-26 20:21:00
3:54 PM,60.1,46.0,60,29.68,10.0,SW,20.7,26.5,N/A,,Partly Cloudy,220,2013-09-26 20:54:00
4:54 PM,59.0,44.1,58,29.71,10.0,SW,15.0,23.0,N/A,,Mostly Cloudy,230,2013-09-26 21:54:00
5:54 PM,57.9,44.1,60,29.73,10.0,WSW,17.3,23.0,N/A,,Mostly Cloudy,250,2013-09-26 22:54:00
6:54 PM,55.9,42.1,60,29.77,10.0,SW,15.0,24.2,N/A,,Overcast,220,2013-09-26 23:54:00
7:54 PM,55.0,42.1,62,29.77,10.0,SW,10.4,21.9,N/A,,Overcast,230,2013-09-27 00:54:00
8:54 PM,54.0,43.0,66,29.80,10.0,SSW,10.4,-,N/A,,Overcast,200,2013-09-27 01:54:00
9:54 PM,53.1,42.1,66,29.83,10.0,WSW,11.5,-,N/A,,Overcast,250,2013-09-27 02:54:00
10:54 PM,51.1,41.0,68,29.86,10.0,WSW,12.7,-,N/A,,Scattered Clouds,240,2013-09-27 03:54:00
11:54 PM,51.1,41.0,68,29.87,10.0,WSW,10.4,-,N/A,,Scattered Clouds,250,2013-09-27 04:54:00